Theta_e
345 340 334 330 327 323 321 322 322 321 322 325 327 329 332 334 335 335 335 334 334 334 334 334 334 334 335 335 336 336 336 336 335 335 335 335 336 335 335 335 334 334 333 332 332 333 333 333 331 329 329 329 331 333 333 333 333 333 334 335 335 336 337 337 337 338 338 338 338 337 337 338 339 338 338 337 337 338 340 342 343 342 342 341 341
337 330 326 325 325 321 320 321 321 321 322 324 327 331 333 334 334 334 335 334 334 334 334 335 335 335 336 336 336 336 335 335 334 333 334 335 335 335 335 335 335 334 333 332 331 331 331 332 332 332 331 330 330 330 331 330 330 329 329 329 330 332 333 333 334 335 336 337 337 337 337 338 339 339 339 339 339 338 339 340 341 341 341 341 341
327 325 327 328 327 325 324 325 324 324 324 325 329 332 333 333 334 334 333 334 334 335 335 336 336 336 336 335 335 334 334 333 333 333 334 334 334 334 334 334 333 333 332 331 330 329 328 330 332 333 332 332 331 331 331 330 330 328 327 326 325 325 327 327 328 331 334 335 336 336 336 337 337 338 338 339 339 339 339 340 340 340 341 341 341
326 329 331 331 330 329 329 328 327 327 326 327 329 331 332 333 333 333 333 334 334 335 335 334 333 333 333 333 332 332 332 331 331 332 332 332 332 331 331 331 331 331 330 330 330 329 329 330 331 332 332 332 332 331 332 331 330 328 327 326 324 322 322 321 324 328 332 333 334 335 335 336 335 335 336 337 338 339 340 340 340 340 340 341 341
332 334 334 334 333 332 332 332 330 329 329 328 329 330 332 333 333 334 333 333 333 332 332 331 331 330 330 330 330 330 330 330 329 329 329 328 328 328 329 329 329 330 330 331 331 331 331 331 331 331 331 331 331 331 332 331 329 328 328 327 325 323 322 321 322 327 331 332 333 333 334 335 335 334 333 334 335 336 337 338 339 339 339 340 340
335 336 336 336 335 334 334 333 331 331 331 331 330 331 333 333 333 333 332 331 330 330 330 329 329 329 329 328 329 329 328 328 327 327 326 326 326 327 328 329 330 331 332 333 333 332 332 332 331 330 329 329 329 330 330 329 328 328 328 327 326 325 324 323 322 323 326 330 332 332 332 333 334 334 333 332 333 333 334 335 336 337 337 338 338
336 337 337 336 336 334 333 332 332 333 333 332 333 333 334 333 333 331 330 329 329 328 328 328 327 328 328 327 327 327 326 326 326 326 326 326 327 328 329 329 330 331 331 332 331 331 331 330 330 329 329 328 327 328 328 328 328 328 328 327 327 326 325 324 323 321 322 325 328 330 332 332 333 334 334 333 334 334 334 334 334 334 335 335 336
337 337 336 334 334 332 331 332 333 334 334 334 334 334 334 333 333 331 330 329 328 327 327 327 327 327 327 327 326 326 326 327 326 326 326 326 327 328 329 329 329 329 329 329 329 329 329 329 330 330 329 328 327 328 328 328 328 328 328 328 327 326 325 324 323 322 322 324 326 327 330 332 333 333 334 335 335 334 334 334 334 333 333 334 334
336 335 334 333 332 331 330 332 335 336 336 335 335 334 334 334 333 332 331 330 328 327 327 326 326 327 327 327 328 327 326 326 325 325 326 326 327 328 328 328 329 329 328 328 328 328 327 327 327 327 327 327 328 328 328 328 327 328 328 327 326 326 326 325 325 324 323 325 326 325 327 330 331 332 333 334 334 334 333 333 332 332 332 332 332
335 334 333 332 332 331 332 334 337 337 337 336 335 335 334 335 334 333 332 330 328 327 326 326 327 327 328 327 326 325 324 324 324 325 326 327 327 327 327 327 327 327 327 327 326 326 326 326 326 326 326 326 326 327 327 327 326 326 325 324 325 326 326 326 326 325 324 326 327 326 326 327 328 330 332 333 333 333 333 332 332 332 332 332 332
334 333 333 333 334 333 334 336 338 338 339 338 337 337 336 336 335 334 333 331 329 327 326 327 327 326 325 324 323 323 323 324 325 325 326 326 326 326 326 326 326 326 326 326 325 325 325 325 326 326 327 327 327 327 326 326 326 326 326 325 326 326 327 327 326 326 325 326 326 326 327 327 326 328 330 331 331 331 332 332 332 332 332 333 333
336 336 336 335 335 336 336 338 339 340 341 340 340 340 339 337 336 337 336 333 329 326 326 326 325 324 323 324 324 325 325 325 325 325 325 325 325 326 325 325 325 325 325 324 324 323 323 323 325 326 327 328 328 328 328 328 328 328 328 328 327 327 327 327 327 326 327 326 325 326 326 326 327 327 328 329 330 330 330 330 330 330 330 331 333
339 340 341 338 337 337 339 340 342 342 342 342 342 341 340 340 339 339 338 333 328 325 324 323 324 324 325 325 325 325 324 324 324 323 323 323 324 324 324 323 323 323 322 322 321 320 320 321 323 324 325 326 326 326 327 327 328 328 328 328 328 327 328 327 327 327 326 326 326 326 326 327 327 327 328 328 330 330 331 330 329 330 330 330 331
340 341 342 341 340 339 340 342 342 342 342 342 341 341 341 340 340 340 337 331 325 323 322 323 324 325 326 325 324 323 323 323 322 322 322 322 323 323 323 323 322 321 320 320 320 320 320 321 323 324 324 323 324 324 325 325 325 326 326 326 327 327 327 327 327 327 327 327 327 327 328 328 328 328 328 329 329 330 330 330 330 330 330 330 329
340 341 342 342 342 341 341 341 341 342 342 342 342 342 340 339 340 339 333 326 323 323 323 324 325 326 326 325 324 324 324 324 323 323 322 322 322 322 322 322 321 320 320 320 320 320 320 321 322 322 322 322 322 322 322 322 323 323 323 324 324 325 326 326 327 327 327 328 328 328 328 328 328 328 329 329 329 330 330 330 331 331 331 330 330
341 341 341 342 343 343 342 341 341 342 342 342 342 341 340 339 339 335 327 322 322 323 324 326 326 326 327 326 326 325 325 325 324 323 322 322 321 321 321 320 320 320 320 320 320 320 321 321 321 321 321 322 321 322 322 322 322 322 322 322 323 323 324 325 325 326 326 327 328 328 328 328 328 328 328 329 329 329 330 330 330 331 331 331 331
340 341 341 343 343 343 343 342 342 343 342 341 340 340 339 337 333 327 323 322 323 324 325 325 326 326 327 327 326 326 326 325 323 321 321 321 320 320 321 321 321 321 321 321 320 321 320 320 319 319 318 318 318 319 320 320 320 320 321 321 321 322 322 323 323 323 324 325 326 327 327 327 327 327 327 327 327 328 328 328 329 329 329 329 329
340 341 341 342 343 343 343 343 343 343 342 341 340 337 334 330 326 323 323 324 324 325 325 325 326 326 326 326 326 326 324 322 320 320 320 321 321 321 321 321 321 321 320 319 317 316 315 314 314 315 315 315 315 316 316 317 318 318 319 320 321 320 321 321 322 322 323 323 323 324 325 325 325 325 325 326 326 326 326 327 327 327 327 327 327
339 339 340 341 343 343 343 343 342 342 341 338 334 331 327 325 324 324 324 325 325 326 326 326 326 327 326 326 324 322 320 319 319 320 320 321 321 321 321 321 320 319 318 316 314 313 313 313 314 314 315 315 316 316 317 318 317 318 319 319 320 320 321 321 322 322 322 323 323 323 324 324 324 324 324 324 325 325 325 325 325 325 325 325 325
338 339 341 342 343 344 343 342 340 338 334 329 326 325 325 325 325 325 325 325 326 326 326 326 327 327 325 322 319 318 318 319 320 321 321 321 321 321 321 320 318 318 317 317 316 315 315 315 315 315 315 316 317 319 320 321 320 320 319 320 320 321 322 322 322 322 322 322 323 324 324 324 323 323 324 323 323 323 323 323 323 323 323 323 323
341 342 343 343 344 344 342 338 333 329 326 325 325 326 326 326 325 325 326 326 325 326 327 326 325 323 319 318 317 319 320 321 321 320 319 318 318 318 318 316 316 317 318 318 317 317 316 316 315 315 316 318 319 321 322 322 322 321 320 321 321 321 321 321 322 322 322 322 323 323 323 323 323 323 323 323 323 323 323 323 323 323 323 323 322
342 342 343 343 342 339 334 330 326 325 325 326 326 326 326 326 326 326 326 325 326 325 324 321 318 316 316 318 319 320 321 321 319 316 315 315 315 315 315 315 316 318 319 318 318 317 316 315 315 316 318 320 321 321 322 321 321 321 321 321 321 321 320 320 321 321 322 322 322 322 322 323 322 322 322 322 323 323 323 323 322 322 322 323 323
342 341 339 336 333 330 327 327 327 327 326 326 326 328 329 328 326 326 325 326 324 321 317 315 315 316 318 319 320 320 321 320 317 315 315 317 317 316 316 316 317 318 318 317 316 315 315 316 317 319 321 321 321 320 320 320 320 320 320 320 320 320 319 319 320 320 321 321 321 321 321 322 322 322 321 322 323 322 322 322 321 321 321 321 322
338 335 332 327 326 325 327 328 329 329 328 328 330 331 331 328 327 326 325 323 319 315 314 316 318 318 318 318 319 319 319 317 315 315 315 316 316 316 317 317 317 316 316 315 315 316 317 319 320 321 321 320 320 319 319 319 319 319 319 319 319 320 319 319 319 319 319 319 319 320 321 321 321 322 322 322 322 322 322 322 322 321 321 321 321
330 327 325 325 327 329 330 332 332 332 331 330 330 330 329 328 325 323 320 317 314 315 317 318 317 317 317 317 317 316 315 314 313 313 314 314 314 314 315 316 316 315 314 315 316 318 320 321 321 321 320 319 319 319 318 318 319 319 319 319 319 320 320 320 320 319 319 319 319 319 320 321 321 322 322 322 322 322 322 322 322 322 321 321 322
327 328 328 330 331 331 331 331 331 330 329 328 328 328 326 323 319 316 315 315 316 317 317 317 315 315 315 314 314 313 313 312 312 311 311 311 311 312 313 314 314 314 316 318 320 322 322 322 321 321 320 319 319 318 318 318 319 319 319 319 319 320 320 321 321 321 320 320 320 320 321 322 322 322 322 323 323 323 323 323 323 322 322 321 322
329 331 331 330 329 329 328 327 327 327 327 326 325 322 318 315 314 314 315 317 317 316 314 313 314 314 313 313 313 313 312 311 310 310 309 308 309 311 314 315 317 319 320 322 323 323 323 322 321 321 320 320 319 318 317 318 319 319 319 319 319 320 321 322 322 321 321 321 322 322 323 323 323 323 324 324 325 325 324 324 323 322 321 322 322
330 329 329 328 327 326 325 323 323 322 321 319 316 313 313 313 314 316 317 316 314 312 312 313 313 313 313 313 312 311 309 309 309 308 307 306 309 314 317 320 321 322 323 323 323 323 323 323 322 322 322 321 320 319 318 318 319 319 319 319 319 320 321 322 322 322 323 323 323 323 324 324 324 324 325 325 325 325 325 324 324 323 323 323 324
330 328 328 327 325 323 320 318 317 315 313 312 311 312 313 314 314 315 315 314 312 312 313 313 313 312 312 311 310 309 308 308 307 306 306 309 314 318 321 322 323 323 324 324 324 324 323 323 322 322 321 320 319 318 318 318 319 318 319 319 320 321 322 322 322 322 323 323 323 324 324 324 324 324 324 324 324 325 325 325 326 325 325 325 326
329 327 326 324 322 322 320 317 314 311 310 310 311 313 314 314 313 313 313 312 312 313 313 312 311 311 311 309 308 308 308 307 304 305 310 316 319 321 322 324 324 324 324 324 324 324 324 323 322 322 321 320 319 319 318 319 319 319 319 320 320 321 321 321 321 322 322 322 322 323 323 323 323 323 323 323 323 324 324 325 325 326 326 326 326
326 325 324 323 324 324 320 314 311 311 312 312 312 312 311 310 310 311 312 313 313 312 311 311 311 311 309 308 307 307 306 304 304 310 317 321 321 322 324 326 326 325 324 325 325 324 325 324 323 322 322 321 320 320 319 319 319 319 320 320 320 320 320 320 320 320 321 321 321 322 322 322 323 323 323 324 324 325 325 325 325 326 326 326 327
325 325 325 324 325 323 317 312 311 313 313 313 312 310 309 309 310 311 312 312 311 310 310 310 311 310 309 307 306 304 303 303 308 316 321 321 320 323 326 327 326 326 326 325 326 325 325 325 324 324 323 322 322 322 321 320 320 320 320 320 320 320 320 319 319 319 320 320 321 321 322 322 323 324 324 325 325 325 325 325 326 326 326 326 327
325 325 325 325 324 320 314 312 313 313 312 311 310 310 310 312 312 312 311 310 310 309 310 310 309 308 307 306 305 303 302 306 313 320 321 320 321 325 327 327 327 327 327 326 326 326 325 325 325 324 324 324 324 324 323 323 323 322 322 322 322 322 322 321 321 321 321 321 322 323 324 324 325 326 326 326 326 326 326 326 326 327 326 326 326
325 325 326 324 320 315 312 312 311 311 310 309 309 311 312 313 313 312 311 310 309 308 308 308 308 306 305 304 302 301 303 309 317 321 321 320 322 325 327 327 327 327 327 327 327 327 326 325 326 326 325 326 325 325 325 325 325 325 324 324 324 324 324 324 323 323 323 324 324 325 325 326 325 325 326 326 327 327 327 327 327 327 327 327 327
325 326 324 319 313 310 310 310 309 308 308 310 311 313 313 313 313 312 312 311 310 310 309 308 306 305 303 302 302 302 304 311 318 321 320 319 321 325 327 328 328 327 327 327 327 326 326 326 326 325 325 326 326 326 325 324 324 325 325 324 323 324 324 325 325 325 325 325 325 325 325 325 325 324 325 326 326 327 328 328 329 328 328 327 328
325 325 320 314 310 310 310 309 309 309 311 312 314 314 313 313 313 312 312 311 310 310 310 307 305 304 302 302 302 301 304 311 319 321 319 319 318 320 322 324 325 326 327 327 328 327 327 327 327 326 325 326 326 326 325 324 324 324 325 324 323 323 323 324 324 324 324 324 324 324 324 325 325 324 324 325 326 326 327 327 328 329 329 329 328
325 322 317 312 312 313 312 311 311 311 313 314 314 314 313 313 313 312 312 311 310 310 309 307 304 303 302 302 302 301 303 310 319 321 319 318 317 316 317 317 318 320 321 323 324 325 326 327 327 327 326 326 326 326 326 326 326 326 326 326 326 326 325 325 324 324 324 324 325 324 324 324 325 324 324 324 325 325 326 326 327 328 329 329 329
324 320 315 313 314 314 314 313 312 312 314 314 314 313 313 312 312 312 312 311 310 309 307 305 303 302 302 302 302 301 301 308 316 320 320 318 317 317 316 316 315 315 315 315 317 319 321 323 325 326 326 327 327 326 326 326 326 326 327 328 329 329 328 328 327 326 325 325 325 326 326 326 326 326 326 325 325 325 325 325 325 327 328 328 328
322 318 314 314 315 315 314 314 313 313 313 312 313 313 312 311 312 312 311 310 309 307 306 304 302 302 302 301 302 301 301 305 314 319 320 319 318 317 316 316 316 315 313 312 312 314 316 318 320 322 324 325 325 325 325 325 325 326 327 328 329 329 329 328 328 327 326 326 326 326 326 326 326 326 326 326 325 325 324 324 324 326 326 327 328
320 317 315 315 315 314 314 314 314 313 313 312 312 312 311 311 312 312 310 309 307 306 305 303 301 301 301 301 301 301 300 305 312 318 319 319 319 318 317 317 316 315 313 311 311 312 314 317 318 319 320 323 324 325 325 325 326 327 328 328 328 328 328 328 327 326 325 325 324 324 325 324 325 325 325 325 325 325 324 324 324 325 325 326 327
317 316 316 316 316 315 314 314 314 313 313 313 311 310 310 311 311 310 309 307 306 305 304 302 301 302 302 301 301 301 300 302 309 315 318 318 318 318 318 317 316 314 312 311 311 313 316 319 319 319 320 323 325 325 326 326 326 327 327 328 328 328 327 327 326 325 324 324 323 323 323 323 323 323 322 322 322 322 323 323 324 325 325 325 325
316 317 317 316 316 315 315 315 314 314 314 313 310 308 309 310 310 309 307 306 305 304 302 302 302 302 301 301 301 301 300 300 304 310 314 317 317 317 317 317 316 313 311 310 312 316 319 320 320 320 321 323 324 324 325 325 326 327 327 327 328 327 326 325 324 322 321 321 320 320 319 319 319 319 318 318 319 319 320 322 323 324 325 325 324
318 317 317 316 316 316 315 315 314 314 314 312 310 308 309 310 309 307 306 306 304 303 302 302 302 302 301 301 301 301 301 300 301 305 310 314 316 316 316 316 314 312 310 312 316 318 320 320 320 320 321 322 322 323 324 325 326 326 327 327 326 324 322 320 319 319 318 317 317 317 316 316 316 316 316 316 317 318 319 320 321 323 324 325 324
318 318 317 317 317 316 316 315 315 314 313 312 310 309 309 309 307 306 306 305 304 302 302 302 302 301 301 301 301 301 301 301 300 302 307 312 314 316 316 315 312 311 313 316 319 319 319 320 320 321 322 322 323 324 325 325 325 325 324 323 321 319 318 318 318 317 317 316 316 316 316 315 315 315 315 315 316 316 317 318 319 320 322 323 323
319 319 318 318 317 317 316 315 315 314 313 312 311 311 310 308 307 306 306 305 303 302 302 301 301 302 301 301 301 301 301 300 300 302 306 310 314 316 314 312 310 313 316 318 319 320 321 322 322 323 323 324 324 325 325 325 324 322 320 319 318 318 317 317 316 316 315 315 315 315 316 316 315 315 315 315 316 316 316 317 319 320 322 323 324
319 319 319 318 318 317 316 316 315 314 314 313 311 310 309 308 307 306 305 305 303 302 302 301 301 301 301 301 301 301 301 301 301 302 307 312 315 314 312 311 313 317 318 318 319 321 322 323 323 324 324 325 325 326 325 323 321 318 317 317 318 317 316 316 315 315 315 316 316 316 316 316 316 316 316 316 316 316 316 318 320 321 322 323 323
321 320 320 319 318 318 317 316 315 314 314 313 311 309 308 307 306 306 305 304 303 302 301 301 301 301 301 301 301 301 301 301 302 305 310 314 314 311 310 314 317 318 318 318 319 321 322 323 323 324 325 325 325 324 322 319 317 317 317 317 317 316 315 315 315 315 316 316 316 317 317 317 317 318 317 317 316 316 317 319 320 320 320 321 321
322 321 320 320 319 318 318 316 316 315 314 312 310 308 307 307 306 305 304 304 303 302 301 301 301 301 301 301 301 301 301 302 305 309 313 313 311 311 314 317 318 317 317 318 319 321 322 323 324 324 325 325 323 321 318 317 317 318 317 317 316 315 315 315 315 316 317 317 317 318 318 318 319 320 319 318 317 316 317 319 319 319 320 321 321
323 322 321 321 320 320 319 317 316 314 312 310 309 307 306 306 305 304 304 304 303 302 302 301 301 301 301 301 301 301 301 304 308 312 312 311 310 314 318 318 317 317 318 319 320 321 322 323 324 325 325 323 320 318 317 317 317 317 316 316 316 315 315 315 316 317 317 318 318 319 319 320 321 321 320 319 318 317 318 318 318 319 319 320 321
323 322 322 321 321 321 320 318 315 313 311 309 308 307 306 306 305 304 303 303 303 302 301 301 301 301 301 301 301 301 303 307 312 312 311 310 313 317 319 318 317 318 319 320 321 322 323 324 325 324 323 320 317 316 316 317 317 316 316 316 315 315 315 316 317 318 318 319 319 320 320 321 321 321 321 320 319 319 319 319 319 320 321 321 323
323 322 322 322 321 322 321 318 314 311 309 308 308 307 306 306 305 304 303 303 302 301 301 301 301 301 301 301 301 302 306 310 312 311 309 312 317 319 318 318 319 320 320 321 322 323 324 325 325 324 320 317 316 316 317 317 316 316 315 315 315 315 316 317 317 318 319 319 320 320 321 322 321 321 320 320 320 320 320 320 321 322 323 324 324
Wind_Speed
13 12 12 11 9 8 7 7 7 7 8 8 7 7 5 5 5 4 3 3 3 4 6 7 7 7 7 7 8 10 12 14 14 14 13 14 13 13 13 13 14 15 16 16 16 15 15 15 15 13 12 12 12 12 13 14 16 17 18 19 21 21 21 22 24 26 26 24 25 26 25 23 23 22 22 22 21 20 20 20 19 19 19 19 19
12 12 12 11 10 9 9 9 8 7 8 8 8 7 6 5 5 5 4 4 5 6 7 8 8 9 9 10 11 13 14 14 14 13 13 13 14 14 14 15 16 17 18 18 17 16 15 15 15 14 13 12 12 12 13 14 15 16 17 18 20 21 22 24 25 26 28 27 25 26 26 24 23 22 21 20 20 20 20 20 20 20 19 20 20
13 13 13 12 12 11 10 9 8 7 8 8 8 6 5 5 4 4 4 5 6 7 8 9 10 11 12 13 14 14 14 13 13 13 13 14 15 15 15 16 17 17 17 17 16 16 15 14 15 14 14 14 14 14 15 16 17 19 19 19 19 19 21 22 24 25 28 29 27 27 27 25 25 24 23 22 21 19 19 18 18 18 18 19 21
15 14 14 13 12 12 10 8 7 7 7 7 7 6 5 4 4 5 5 6 7 8 9 11 12 12 13 13 13 13 13 13 13 13 14 15 16 16 17 17 17 17 17 17 16 16 15 14 14 14 15 16 17 17 17 18 19 21 22 22 21 20 19 21 22 23 25 27 28 28 27 26 26 26 26 26 25 23 22 20 19 18 17 18 19
16 14 13 12 11 10 9 7 6 6 6 6 7 6 5 5 5 5 6 6 7 9 10 11 11 12 12 13 13 13 13 13 14 14 15 16 16 17 17 18 18 17 17 16 16 16 16 15 14 15 16 18 19 18 19 20 21 23 24 24 22 20 19 20 21 22 23 25 26 27 27 26 26 26 26 27 28 28 27 26 24 23 22 21 20
15 13 12 11 10 9 8 7 6 5 5 5 5 5 4 5 5 5 6 7 8 9 10 11 11 12 12 13 13 14 14 14 15 15 16 16 17 17 17 17 17 17 17 16 16 16 16 17 17 18 18 19 20 19 20 22 23 24 24 24 23 21 21 21 21 22 23 24 25 26 26 26 25 25 25 25 27 30 30 30 28 27 27 26 25
13 13 12 10 9 8 7 7 6 5 4 4 4 4 4 5 4 5 6 7 9 9 10 11 11 12 12 13 13 14 15 15 16 16 17 18 18 18 18 18 18 18 17 17 18 18 18 18 19 19 20 21 21 22 22 23 23 24 24 23 22 23 23 24 23 22 22 23 24 25 25 24 24 24 23 23 25 27 28 30 30 29 28 28 28
13 12 11 10 9 8 8 7 7 5 4 3 4 4 5 5 5 6 7 8 8 9 10 11 12 12 13 13 14 14 15 15 16 17 17 18 18 18 18 18 19 19 19 19 19 19 19 19 20 20 21 21 22 23 23 23 24 24 23 22 23 24 24 25 25 24 22 23 24 25 24 24 23 22 22 21 23 24 24 26 28 28 28 28 28
13 12 11 10 8 8 8 8 7 5 4 4 4 5 6 6 6 7 8 8 9 10 11 12 13 13 13 14 14 15 15 16 16 16 17 17 17 17 18 18 19 19 20 21 21 21 21 21 22 22 22 22 22 23 24 25 26 27 25 25 25 25 24 25 25 24 23 22 23 24 24 24 24 23 21 21 21 22 22 23 25 26 27 28 28
12 11 10 8 8 8 8 9 8 7 5 4 5 6 7 8 8 8 8 9 10 11 12 13 13 14 14 15 15 15 15 15 14 14 15 16 17 17 18 19 20 21 22 22 22 21 21 20 20 20 20 21 22 23 25 26 27 27 27 26 26 25 25 25 25 24 24 23 23 23 24 24 24 23 22 21 20 20 20 21 23 24 24 26 27
12 10 8 8 8 9 9 10 10 8 6 5 5 6 7 7 8 8 9 10 12 13 13 14 14 15 14 14 13 12 12 12 12 13 14 15 16 17 18 18 19 19 19 19 19 19 19 19 19 19 19 20 21 22 23 24 25 26 25 24 24 25 25 25 25 25 25 25 25 25 25 25 25 23 22 22 21 21 21 20 21 21 22 23 24
12 10 8 8 9 9 9 10 10 9 7 6 7 7 8 9 9 9 11 12 13 14 14 15 14 12 11 10 9 9 10 11 12 14 15 15 16 16 16 17 17 17 17 17 18 19 19 19 19 20 19 19 20 21 21 22 22 23 23 23 24 23 23 24 25 25 25 26 26 26 26 26 25 24 23 23 23 23 22 22 21 21 21 22 22
12 10 8 9 10 11 11 12 11 10 9 9 9 9 9 9 10 11 11 13 14 15 15 13 10 8 8 8 8 9 10 12 13 14 15 15 15 16 16 17 18 19 19 19 19 20 20 20 20 20 20 20 21 21 21 22 22 22 23 23 24 23 23 23 23 24 25 26 26 26 25 25 24 23 21 21 22 21 21 21 21 21 21 21 23
13 12 12 13 13 13 14 15 14 13 13 14 13 11 9 9 11 11 12 14 15 16 13 10 7 7 8 9 9 10 12 14 15 16 16 16 16 17 18 20 20 20 20 19 19 19 19 19 20 21 21 22 22 23 23 24 25 25 25 25 25 25 24 23 22 22 23 25 26 25 24 24 23 23 21 21 21 22 22 23 22 23 23 23 24
15 16 17 16 15 14 15 16 16 16 17 17 16 14 12 10 11 12 13 14 14 13 10 8 8 9 10 12 13 14 16 17 17 17 18 18 18 18 19 20 20 19 19 18 17 17 17 18 20 21 22 22 23 23 25 26 27 27 27 27 27 27 27 25 24 23 23 23 24 25 25 24 24 24 23 22 22 23 23 24 24 25 26 26 26
19 18 17 16 16 16 16 17 17 17 17 18 16 14 11 9 10 12 12 12 11 9 9 9 10 11 12 14 16 17 17 17 18 18 18 18 17 17 17 18 18 19 19 18 18 18 18 19 20 21 22 23 24 24 25 26 27 28 29 29 29 29 29 27 26 26 25 24 25 25 25 25 25 25 25 25 25 24 25 26 26 26 27 28 28
19 17 17 19 19 17 17 17 17 16 17 17 15 12 8 7 9 10 9 8 8 9 10 11 12 13 14 15 17 18 18 18 19 18 17 16 16 16 17 18 19 19 19 19 20 20 21 21 22 24 25 25 25 25 25 26 28 29 29 30 30 30 30 29 28 29 28 27 27 27 27 28 28 28 27 27 27 27 27 29 29 29 29 30 30
19 17 19 22 21 19 19 18 16 16 15 12 8 6 5 5 6 7 6 7 9 10 12 13 14 14 15 16 17 18 19 19 18 17 16 16 16 17 18 20 20 20 20 21 22 22 23 24 25 26 27 28 28 28 28 28 30 31 31 31 31 32 31 30 30 31 31 31 31 30 31 31 31 31 31 30 29 29 29 31 31 31 32 33 33
19 17 20 22 21 21 20 18 15 13 9 4 3 4 4 4 5 6 7 9 10 12 14 15 14 15 15 16 17 18 18 17 15 15 15 16 18 19 20 21 21 21 22 23 24 25 26 28 29 30 32 33 33 32 31 30 31 32 32 32 33 34 32 31 31 31 32 33 33 33 33 33 33 34 33 33 32 31 32 33 32 33 34 35 34
19 20 21 21 20 19 16 12 8 6 3 3 3 4 4 5 6 7 8 10 12 14 15 15 15 15 16 17 16 16 15 14 13 15 17 18 19 20 21 22 22 22 23 25 27 28 30 32 34 35 36 37 38 36 34 32 31 32 32 32 33 34 33 32 32 31 30 32 33 32 31 32 34 35 35 35 35 35 35 35 34 35 35 36 37
14 15 15 14 13 10 7 5 4 4 4 4 4 4 5 7 8 9 10 12 14 15 16 16 16 16 16 15 14 13 12 13 14 15 17 17 18 18 20 21 23 24 26 27 29 31 33 36 38 39 40 40 39 38 36 34 32 32 32 32 31 32 32 32 33 31 31 32 33 32 30 29 29 32 34 36 36 35 35 34 33 34 35 35 37
3 4 6 7 7 6 7 6 6 5 5 5 5 5 7 8 9 11 12 13 14 15 16 16 15 14 14 13 12 12 12 13 14 15 15 16 16 18 20 23 24 26 28 30 32 34 37 39 41 42 41 40 39 38 37 36 34 32 32 31 30 29 29 30 31 32 32 31 31 32 31 28 27 30 33 33 31 30 29 28 27 28 29 31 33
6 7 9 9 8 8 7 6 5 5 5 5 6 8 9 10 11 12 13 14 16 16 15 14 13 13 14 12 11 11 12 13 14 15 17 19 20 21 24 25 26 27 30 32 35 37 40 42 43 42 41 39 38 37 36 34 32 31 30 28 26 25 25 27 29 29 29 27 27 28 29 27 27 30 31 29 26 24 23 22 22 23 24 26 29
9 9 8 8 7 6 5 3 3 4 5 8 10 11 11 11 12 13 14 15 15 14 12 12 13 13 14 12 11 11 13 14 15 17 20 22 23 25 26 28 28 30 33 36 38 40 42 43 43 42 40 37 35 33 30 28 26 26 24 23 22 22 22 23 25 25 24 22 22 24 25 23 24 26 26 24 22 20 20 21 21 21 21 22 24
9 9 9 8 7 5 3 3 4 6 8 9 10 10 11 12 13 14 14 13 11 11 11 11 12 13 13 13 13 14 16 17 19 20 22 24 25 26 28 30 32 34 37 39 41 42 42 42 41 39 36 33 31 29 27 25 22 20 18 17 17 18 19 20 21 22 21 20 19 20 20 19 18 20 20 19 19 19 20 22 23 22 20 20 21
8 9 9 7 6 4 3 3 5 6 7 8 8 10 11 12 12 11 10 8 8 10 11 11 12 13 13 15 17 18 20 22 23 23 24 25 26 28 31 34 37 39 41 42 42 42 41 39 37 34 32 30 28 26 25 22 20 18 16 15 16 17 18 18 18 19 20 19 18 18 17 16 15 16 16 16 18 20 20 21 22 22 21 20 21
7 7 6 5 4 2 1 1 3 4 5 7 8 9 10 9 8 7 6 7 9 11 11 11 11 13 16 18 20 22 24 25 25 26 26 27 29 32 34 37 39 41 42 42 41 39 37 35 32 30 28 26 24 22 20 18 17 17 16 15 15 16 15 15 15 16 17 17 16 16 15 15 15 15 15 16 18 19 18 18 20 20 20 20 22
5 5 5 4 3 2 1 1 1 3 5 6 7 6 5 5 5 6 7 9 10 11 10 10 12 15 18 20 22 25 26 26 27 28 29 31 33 35 37 39 40 41 41 39 36 33 31 30 29 27 24 23 22 19 16 15 15 15 15 14 13 13 13 13 13 13 14 13 13 13 13 14 15 16 17 18 19 18 17 17 19 20 20 20 22
5 6 5 4 3 4 4 4 4 4 5 5 4 4 4 5 6 7 8 10 10 10 10 11 14 16 18 21 24 26 27 27 28 28 30 31 33 35 38 40 40 38 34 32 30 28 27 27 27 26 24 22 21 19 17 16 15 15 14 13 12 12 12 12 13 12 13 13 14 15 16 16 18 18 19 22 22 20 17 16 17 18 19 19 21
5 5 4 4 5 7 8 8 6 5 4 4 4 4 4 6 7 7 7 7 8 9 11 14 16 17 20 23 24 24 25 27 28 28 29 30 32 36 38 37 34 31 28 26 26 25 24 24 25 24 23 22 21 19 18 17 16 15 14 13 12 13 15 15 16 16 16 17 18 19 19 21 22 23 24 26 26 23 20 18 18 18 19 19 19
6 5 5 6 7 9 10 8 6 5 5 5 6 6 6 6 5 4 4 5 7 10 13 15 17 19 22 24 24 24 25 26 27 27 28 31 34 37 36 32 28 26 25 24 24 23 23 23 23 22 22 21 20 19 19 18 16 16 16 15 14 16 17 19 20 20 21 22 22 22 23 24 25 26 27 26 25 23 21 20 20 19 19 19 20
6 7 7 7 8 10 10 8 6 6 6 7 8 8 7 6 5 4 4 6 9 11 13 15 17 20 24 25 26 26 26 26 25 26 29 32 35 36 32 27 25 24 22 22 23 22 22 24 24 23 22 22 20 19 18 18 18 17 17 17 17 17 17 19 20 21 23 24 25 25 26 26 26 26 25 23 22 22 21 20 20 19 19 20 21
7 7 7 7 9 10 9 8 7 7 7 8 8 8 7 7 7 8 9 10 11 13 14 17 20 22 24 26 26 26 25 24 24 26 29 32 35 34 28 23 23 22 21 22 24 22 22 24 26 24 23 23 22 20 19 18 19 19 18 19 19 18 18 18 19 20 21 22 23 24 24 24 23 24 24 22 20 20 20 20 19 19 18 19 20
7 7 7 8 10 9 8 8 8 8 8 8 7 7 7 8 10 12 13 15 16 16 17 19 22 24 25 25 26 25 23 22 23 26 28 31 33 31 26 23 21 20 20 23 24 23 24 25 26 25 24 23 23 22 21 20 20 21 21 20 20 20 20 19 19 19 20 20 21 22 23 22 22 23 24 23 21 19 18 18 18 17 16 16 17
5 6 8 9 9 9 9 9 9 9 8 8 8 8 8 10 11 12 14 17 19 19 20 22 23 24 25 25 25 24 22 21 22 24 27 29 30 29 27 25 24 23 22 23 24 23 24 24 25 25 25 24 23 22 22 21 22 22 22 22 22 22 21 20 20 20 21 22 22 22 22 23 24 24 23 22 20 19 18 17 16 16 15 15 15
5 6 7 8 9 10 11 12 11 10 9 9 9 9 10 11 12 13 15 17 18 20 23 24 24 24 24 24 24 23 22 21 21 23 26 27 28 28 28 27 27 26 25 24 24 24 24 23 23 24 24 23 23 23 22 23 23 24 24 26 26 26 25 23 22 22 22 24 24 23 22 24 26 25 22 20 19 19 19 18 17 16 15 15 15
5 6 6 7 9 11 13 14 13 11 10 9 9 10 11 12 13 14 16 18 19 22 24 25 25 25 24 24 25 25 23 21 20 21 23 25 26 28 28 28 28 27 27 26 25 25 25 24 24 24 24 23 23 23 23 25 26 26 27 27 27 27 27 27 26 26 26 25 26 26 25 26 26 25 22 21 19 19 19 20 19 17 17 17 15
5 5 5 7 9 10 11 12 12 11 9 9 10 11 13 13 14 15 17 19 21 23 24 25 26 26 26 26 27 27 25 23 21 22 23 25 26 28 28 29 29 29 29 28 27 26 25 24 23 24 24 24 24 25 27 28 29 29 29 30 30 28 27 26 26 26 26 25 27 28 29 29 28 27 24 22 21 20 21 21 20 18 18 18 17
4 4 4 6 7 8 9 10 11 11 11 11 11 13 15 15 15 16 19 21 22 23 24 25 25 26 26 27 27 28 27 26 25 25 25 26 26 27 28 29 30 31 31 31 30 29 28 26 23 22 22 24 25 26 28 29 29 28 29 29 29 28 28 27 27 26 24 23 22 24 26 27 27 26 23 21 22 24 25 23 22 20 18 18 18
3 4 4 4 5 6 9 10 10 11 13 13 14 16 16 16 16 18 21 22 22 22 23 24 25 25 25 26 27 28 28 26 25 25 25 26 26 27 28 29 30 32 32 32 32 31 30 28 26 23 22 23 24 25 26 27 28 28 28 27 27 28 29 29 27 26 25 24 23 23 23 23 23 24 24 24 25 27 27 25 24 21 19 18 18
4 4 4 4 5 7 9 10 10 11 13 15 16 17 16 15 17 19 21 21 21 21 23 23 24 24 24 24 25 26 26 25 24 23 24 25 26 27 28 29 30 32 33 33 33 31 29 28 26 23 22 23 25 24 25 27 28 29 28 28 29 30 30 29 28 27 26 26 27 26 26 26 26 27 28 27 27 26 25 23 21 19 18 18 17
6 5 4 5 6 7 9 9 10 12 14 16 17 17 16 15 17 19 19 19 20 21 22 22 23 23 23 24 24 24 24 24 23 22 22 23 24 26 28 28 30 31 33 33 32 29 28 28 25 22 23 25 26 25 26 28 28 29 29 30 30 31 31 31 31 30 30 30 30 29 29 29 29 28 27 26 24 22 20 18 17 16 16 16 15
6 6 6 7 8 8 9 9 10 12 14 16 17 17 15 16 18 18 19 19 20 21 22 22 23 23 23 23 24 24 24 24 23 22 22 23 24 26 27 28 30 32 32 32 29 27 26 26 24 22 24 25 24 24 26 27 28 28 29 29 30 32 33 34 34 33 33 32 31 29 28 26 25 23 22 21 20 19 18 18 18 17 16 15 14
6 7 7 7 8 9 9 9 10 12 14 16 18 17 16 16 18 18 19 19 20 21 21 22 23 23 24 24 24 25 25 25 24 22 22 22 24 25 27 29 31 31 31 30 28 25 25 25 25 24 25 25 24 24 24 25 26 27 28 30 32 34 35 36 36 35 33 31 29 27 25 23 21 20 19 18 17 16 16 16 16 16 15 14 13
6 6 7 7 8 9 9 9 11 13 14 16 17 17 16 17 18 19 19 19 20 20 21 21 22 23 24 24 25 25 26 25 24 22 22 23 24 26 27 30 31 30 30 29 26 25 25 26 26 26 26 25 25 24 23 23 25 27 30 32 35 37 37 37 36 33 30 28 27 25 23 22 20 19 17 16 15 13 11 10 10 9 10 10 10
6 5 6 7 8 9 10 10 11 12 14 16 17 17 16 17 18 19 19 19 19 19 20 21 22 22 23 24 25 25 26 25 24 23 23 23 24 26 29 30 30 29 28 26 24 24 25 26 26 26 26 25 24 24 24 25 27 30 33 35 37 37 37 35 33 30 27 25 25 24 23 21 19 17 14 12 10 8 6 3 3 4 5 5 6
5 4 6 7 8 9 10 11 11 12 14 15 16 16 16 17 18 18 18 17 17 18 20 20 21 22 23 24 24 25 25 24 23 23 23 24 26 28 29 29 29 29 28 25 23 24 25 25 25 26 25 24 23 24 25 27 31 33 35 37 37 35 34 31 29 27 25 24 23 22 22 21 19 16 12 7 3 2 2 2 3 4 4 4 5
3 4 6 8 9 9 10 11 12 12 13 14 15 15 16 16 17 17 17 16 17 18 19 20 20 21 22 23 24 25 24 23 22 23 23 25 27 28 28 28 29 29 28 26 25 24 24 25 26 26 24 23 23 25 28 31 34 35 36 37 35 33 31 29 27 26 25 24 22 21 20 19 18 14 10 5 3 5 6 5 5 6 6 6 5
4 5 6 8 9 9 10 11 12 12 12 13 14 14 15 15 16 16 16 16 16 18 19 19 20 21 22 23 24 24 23 22 23 23 24 26 27 27 27 29 30 29 28 27 26 23 23 24 25 24 23 23 25 28 31 34 35 36 37 36 34 32 30 28 26 25 24 23 22 21 20 18 16 14 11 9 8 8 8 7 8 9 8 6 4
5 6 6 8 10 10 11 12 11 11 11 12 13 13 14 15 16 16 16 15 16 17 18 18 19 20 21 23 24 23 22 22 23 24 25 26 27 27 28 29 29 29 28 27 25 22 23 24 24 22 22 24 27 30 33 35 37 37 37 36 34 32 30 28 26 25 24 23 22 22 20 18 17 16 15 15 14 13 12 12 12 12 9 8 9
5 5 5 7 10 12 12 11 10 10 11 11 12 13 14 15 16 16 15 15 16 17 17 18 19 20 21 22 23 22 21 21 22 24 25 26 26 27 28 29 29 28 27 25 23 22 23 24 23 22 23 26 30 33 35 37 38 38 37 35 34 32 30 28 26 25 24 23 23 23 21 19 18 18 18 19 18 17 16 15 15 15 14 14 14
Wind_Direction
171 171 168 167 168 165 163 167 175 183 186 186 186 189 198 202 196 192 198 231 272 299 315 319 315 310 303 298 298 301 305 308 310 310 307 302 300 302 304 305 307 309 309 310 312 313 312 311 312 311 306 297 290 285 283 282 281 279 279 279 277 276 279 280 281 281 280 277 277 277 278 279 279 278 278 279 279 277 273 269 270 271 270 268 265
174 170 163 158 157 156 157 161 165 173 181 186 189 193 201 204 201 204 218 253 283 298 306 309 310 307 301 298 297 299 302 305 305 305 302 298 298 299 300 301 303 305 306 307 309 309 306 302 301 302 304 302 296 291 292 295 296 293 288 285 281 277 276 278 281 282 281 278 275 274 273 273 273 272 274 278 279 277 274 271 270 270 270 270 270
172 164 157 152 153 155 154 153 157 165 176 186 195 201 209 216 219 227 245 265 280 292 298 301 302 299 297 296 296 298 301 302 301 299 296 295 294 295 296 297 299 301 303 304 306 307 306 301 297 297 299 301 299 299 301 303 306 306 303 299 293 284 276 274 275 277 280 280 279 277 275 274 273 271 271 273 274 274 273 271 271 272 271 269 270
167 161 155 150 150 152 150 151 157 163 174 190 202 212 224 236 243 251 264 274 283 292 296 298 298 298 299 299 299 300 300 300 300 297 295 294 293 293 294 295 296 298 298 298 300 302 303 301 298 296 296 297 298 299 299 300 305 309 310 308 304 294 281 272 269 271 274 276 277 277 278 278 277 275 273 272 271 271 271 271 272 273 273 271 270
167 164 162 160 159 158 158 162 162 161 170 187 202 216 232 243 252 262 274 287 295 298 300 300 300 301 301 301 301 301 300 300 299 296 295 294 294 294 295 296 297 298 298 299 299 299 299 298 295 294 294 294 294 294 294 298 303 306 308 310 307 298 286 276 270 268 270 272 273 274 274 275 276 276 276 275 274 272 272 271 272 274 275 274 273
171 173 175 175 174 174 177 180 177 171 172 182 197 215 232 243 256 276 293 302 303 302 302 300 299 299 298 298 297 298 298 298 297 298 298 298 299 299 299 299 299 300 300 300 299 298 298 298 296 294 294 294 292 292 293 296 298 300 303 306 305 299 292 286 280 275 271 271 272 272 271 270 271 272 273 272 272 272 273 272 272 273 275 275 275
177 183 188 189 191 194 194 192 193 191 185 186 198 217 236 251 270 293 305 306 305 304 301 298 297 296 295 295 296 297 298 301 302 303 303 303 304 303 302 302 301 300 299 299 299 300 299 298 295 293 295 295 293 292 291 290 291 293 297 301 301 298 296 294 291 286 279 274 272 273 272 271 270 269 269 267 266 267 271 273 273 271 271 272 273
187 192 196 197 201 204 203 201 202 205 206 209 218 233 248 263 281 295 302 305 306 305 304 302 301 301 302 303 303 304 304 305 305 304 304 304 303 303 303 304 304 303 302 302 302 301 299 295 292 291 293 293 291 288 286 285 287 290 293 297 297 295 295 294 293 289 285 280 277 276 275 274 273 272 271 268 266 266 267 271 273 271 268 267 267
194 198 202 205 208 212 212 211 213 221 233 241 243 249 259 269 279 287 296 306 312 314 315 314 312 312 312 312 310 310 309 307 306 307 307 307 306 306 306 305 305 305 304 303 302 301 299 296 292 291 291 289 287 284 283 285 288 291 294 295 293 292 292 293 293 291 288 284 282 281 279 277 275 275 275 272 271 271 270 270 272 272 270 267 264
199 204 209 212 218 224 222 221 227 235 243 250 256 262 268 273 277 287 301 314 320 321 319 317 316 314 313 312 311 311 311 311 313 313 312 310 308 306 305 304 304 304 304 304 305 305 304 302 298 295 291 287 284 282 282 283 284 287 290 290 290 290 291 291 290 290 287 283 281 282 282 280 278 278 278 277 276 276 274 272 273 273 273 271 268
203 208 213 218 225 230 230 233 238 238 235 243 259 269 274 277 284 298 311 320 322 320 318 316 314 314 314 316 317 319 322 323 322 320 316 314 312 310 310 310 309 309 308 308 309 310 309 308 305 301 297 293 289 286 285 285 285 286 287 286 286 287 289 289 288 288 286 283 283 284 283 282 281 280 279 279 279 277 273 270 270 272 273 274 273
208 214 220 226 233 238 240 241 242 240 239 247 258 264 269 277 291 306 316 322 321 318 316 315 315 317 321 326 332 333 333 329 326 325 324 323 322 320 319 318 316 314 313 311 311 311 309 307 305 304 303 301 298 295 292 290 289 288 288 287 286 286 286 286 286 285 284 284 284 283 282 282 281 279 277 276 276 274 270 266 266 268 269 271 272
211 217 226 235 240 242 241 240 243 246 244 244 251 256 266 283 298 308 314 318 318 315 315 314 315 320 328 337 340 339 337 335 333 334 333 331 328 324 323 321 319 317 315 313 311 310 308 305 303 302 302 302 301 300 298 297 295 293 291 289 288 287 285 284 283 281 280 279 279 280 280 281 279 278 277 276 275 273 271 269 270 269 268 268 270
217 224 231 235 236 237 235 237 244 246 242 243 249 255 270 295 307 308 310 312 312 311 312 309 309 317 326 333 336 339 342 340 338 338 335 332 329 325 322 319 317 317 316 315 313 311 308 305 302 302 301 302 303 303 303 302 299 296 295 293 291 290 287 283 280 278 276 276 276 277 278 280 279 279 278 275 273 273 274 277 276 274 271 269 269
225 229 231 234 240 245 243 244 248 248 244 244 248 256 274 298 306 302 304 307 308 309 311 310 315 322 326 329 331 337 340 339 335 333 331 329 325 321 317 315 315 317 318 318 315 312 310 307 305 304 305 305 307 307 305 304 301 298 296 294 293 291 288 285 282 278 275 274 274 274 275 277 278 278 277 275 274 274 276 277 277 277 277 275 272
230 233 238 244 251 252 249 249 251 249 247 248 254 269 284 295 295 294 301 308 312 317 320 321 324 325 323 323 326 331 334 331 328 327 326 324 322 319 318 318 317 318 318 317 315 312 310 308 307 308 308 309 310 308 306 305 302 299 297 296 294 292 288 285 283 281 277 274 273 273 273 274 274 274 274 274 274 273 274 273 272 273 275 276 273
235 240 246 248 251 254 255 257 256 256 261 268 276 285 287 281 284 292 303 316 324 326 324 323 321 319 318 317 320 324 324 322 322 323 322 323 324 325 326 323 320 320 319 317 316 314 313 311 311 311 311 311 310 308 307 305 303 300 298 297 295 293 290 288 287 285 281 276 272 270 270 270 270 270 270 269 269 269 270 269 269 271 273 274 274
239 245 250 251 256 262 263 263 266 273 281 285 281 278 273 268 275 287 305 322 327 323 321 321 317 314 315 315 315 317 317 318 321 321 321 323 326 326 325 322 320 320 320 319 318 317 316 316 315 314 313 313 312 309 306 304 302 300 299 298 295 293 291 291 290 287 284 279 275 270 268 267 267 267 267 267 266 265 265 267 268 269 271 272 274
245 252 254 257 265 268 266 268 276 283 286 274 248 249 249 253 268 288 307 318 320 317 317 317 313 311 311 312 312 314 315 318 320 321 322 323 322 319 318 317 317 318 318 317 316 317 318 318 317 315 313 312 312 310 307 304 300 298 297 297 295 294 294 295 293 289 286 282 279 275 271 269 267 267 266 266 266 265 265 266 267 267 268 269 270
254 258 257 261 268 270 269 269 269 261 238 212 223 228 235 256 279 296 305 310 313 314 314 313 310 309 310 311 314 316 318 320 321 321 320 319 316 314 313 313 314 315 313 312 312 313 315 315 315 314 312 311 311 310 308 305 300 296 293 291 292 295 299 300 297 293 288 284 281 278 274 272 271 270 269 267 267 267 267 268 268 268 269 269 268
260 258 252 256 260 255 239 217 195 187 189 199 210 228 257 278 291 298 302 305 308 310 311 310 309 309 311 315 320 324 323 322 322 323 321 320 317 313 311 312 313 310 308 307 308 309 310 311 312 312 311 310 311 310 309 306 300 294 290 287 288 294 299 299 297 295 291 288 285 281 277 273 271 272 273 272 271 271 272 274 274 272 270 268 267
249 215 185 189 190 174 166 167 166 174 190 203 225 259 281 292 299 299 299 301 305 308 309 309 311 314 319 324 326 326 326 324 324 327 327 324 319 314 313 315 313 308 306 306 307 307 308 309 309 310 311 311 311 310 308 305 299 292 287 285 287 292 295 295 295 296 295 292 289 284 279 274 269 270 274 278 280 282 283 283 280 277 272 268 265
127 138 140 149 157 156 160 166 171 186 207 232 263 284 296 301 299 295 296 302 307 309 310 313 319 324 326 326 327 326 327 326 325 325 324 320 317 316 316 315 313 310 308 308 308 308 309 309 311 313 313 312 311 309 307 304 299 293 287 285 286 289 291 292 295 299 299 296 291 285 281 278 274 272 276 283 290 292 287 280 275 274 274 271 267
134 143 145 152 157 159 164 173 198 230 245 259 275 288 296 296 292 293 299 305 308 310 314 319 325 328 328 330 331 329 327 325 321 319 318 318 318 319 318 316 315 313 311 310 310 311 312 313 314 315 315 313 312 312 311 309 305 297 289 284 284 285 288 293 300 305 305 301 292 286 283 281 278 278 281 288 291 287 280 273 271 272 274 274 271
139 147 153 159 163 169 193 228 247 259 264 269 276 282 285 287 291 297 302 306 310 315 320 324 331 335 337 335 333 331 329 326 323 320 319 319 320 321 320 319 318 316 314 314 314 315 315 317 317 317 317 317 316 316 316 315 312 305 295 287 283 284 287 294 300 303 304 303 296 291 289 288 284 285 289 291 289 286 284 280 275 271 269 270 271
142 148 154 161 167 183 219 241 251 260 263 265 269 274 283 292 298 302 306 311 319 324 329 335 340 340 335 331 331 331 330 328 327 325 324 323 324 324 323 322 321 319 318 317 318 319 320 320 321 321 320 319 318 317 316 317 315 309 301 292 286 284 285 288 293 296 300 303 304 305 308 306 298 294 295 295 291 290 291 289 283 276 270 269 270
143 147 152 156 155 157 185 238 248 252 255 264 275 284 294 302 305 307 315 324 330 334 339 342 340 333 330 330 330 329 329 330 330 331 330 330 329 329 327 326 324 322 321 321 322 324 325 325 324 322 320 321 322 320 318 318 315 309 304 298 290 284 283 285 287 290 295 300 303 308 311 309 303 299 299 300 297 295 295 293 288 283 279 275 273
137 133 133 129 118 98 61 332 271 274 281 289 296 303 308 313 317 324 332 336 340 343 345 340 333 330 331 331 329 329 331 334 335 335 334 333 331 330 329 327 325 324 324 325 327 329 332 333 333 330 329 331 334 332 328 323 319 314 310 304 294 286 286 289 288 289 293 299 303 306 306 302 299 298 299 299 299 301 301 295 287 282 280 278 276
126 122 118 102 77 59 40 19 357 336 322 319 324 328 329 332 336 338 340 342 346 346 340 333 330 331 333 333 332 334 335 336 336 336 334 332 331 331 330 328 327 327 328 330 332 335 340 343 344 344 343 341 340 340 338 333 327 323 320 311 299 289 288 293 295 294 295 298 302 304 304 302 301 301 301 300 298 299 301 299 292 287 283 280 277
123 117 99 70 53 41 25 11 2 357 354 354 354 352 342 336 339 341 343 347 347 338 330 329 331 333 335 337 338 339 337 336 335 335 334 334 334 333 332 331 330 331 333 333 333 334 337 342 347 351 351 348 343 340 337 333 329 325 322 314 303 295 293 295 300 303 303 302 302 302 301 301 300 300 300 300 299 298 298 297 296 294 290 285 281
114 99 72 54 42 25 12 7 9 12 12 10 6 2 353 350 356 4 3 355 343 333 330 332 334 336 338 340 341 340 337 336 336 336 337 338 337 336 336 337 337 337 336 334 333 335 336 339 344 349 350 350 349 344 338 334 331 327 323 318 309 304 301 300 300 301 299 299 299 299 297 296 295 295 296 297 297 296 294 292 291 288 285 282 280
94 77 59 44 29 15 10 15 20 17 12 8 5 5 11 23 34 33 14 355 345 338 336 337 339 340 341 341 341 340 339 339 340 340 341 340 338 339 341 342 341 341 341 341 343 347 349 349 350 350 348 346 347 345 340 336 333 329 326 321 314 309 304 300 297 294 291 291 293 294 294 294 294 297 299 299 294 290 288 287 287 285 280 276 274
67 61 53 36 20 14 16 21 19 11 6 6 10 20 30 29 17 3 356 353 350 347 345 344 344 343 342 341 341 340 341 342 343 343 343 341 341 343 345 344 342 344 349 353 354 356 358 357 357 358 356 354 352 350 348 345 341 336 331 326 323 319 312 304 298 293 290 290 292 294 295 296 298 304 310 311 304 296 290 287 287 287 284 281 277
55 53 44 28 18 17 21 19 12 6 6 15 30 40 33 16 3 355 352 351 351 351 351 348 346 344 342 341 341 343 344 345 346 346 344 343 344 347 349 347 347 351 356 358 359 360 0 359 358 357 358 357 356 354 353 350 345 340 335 329 324 323 320 314 307 301 296 294 293 294 297 297 298 302 307 309 309 305 296 289 287 286 286 286 285
52 47 37 27 25 28 27 22 17 17 28 43 46 34 15 3 358 353 351 351 351 349 348 347 346 345 343 342 343 347 349 349 348 347 345 346 350 353 355 356 359 1 1 359 358 359 358 355 353 351 350 350 351 350 346 340 336 333 330 323 318 318 317 314 310 306 302 299 297 296 299 303 303 301 299 300 305 307 302 295 290 287 285 286 285
56 48 40 37 40 42 38 32 30 36 47 48 34 16 3 357 354 351 351 350 348 345 344 345 345 345 344 344 346 349 351 351 350 348 347 350 355 359 1 4 5 5 3 359 357 357 355 351 347 344 342 342 342 340 334 329 326 323 319 315 311 309 308 307 306 304 304 304 301 298 299 302 303 303 300 299 302 307 306 302 298 293 290 288 286
62 53 47 47 47 45 41 37 36 42 44 32 14 3 358 354 351 349 349 348 346 344 344 344 345 346 348 348 349 350 352 351 349 347 348 353 357 0 4 6 6 5 2 359 355 353 352 350 347 344 341 339 338 337 335 333 331 329 326 323 317 312 308 304 300 297 296 298 299 297 296 296 297 300 301 298 298 302 304 303 301 296 292 291 289
69 58 56 55 50 45 41 37 36 36 29 11 359 357 355 352 349 348 348 348 345 345 346 346 347 349 351 351 350 350 350 348 346 347 351 355 357 358 360 2 3 2 0 358 355 351 349 346 345 344 343 342 342 341 338 336 334 334 335 334 331 327 324 319 313 305 299 294 291 291 292 293 293 295 295 292 293 296 298 299 298 292 287 287 288
75 64 64 61 51 39 33 31 28 21 11 1 356 354 352 351 348 347 347 347 346 346 348 349 350 352 353 351 350 350 349 348 347 348 352 355 356 356 355 356 358 357 355 354 353 351 348 345 343 340 341 343 342 339 337 336 335 335 334 334 335 338 339 337 334 330 324 315 305 299 299 298 296 292 288 284 285 289 292 294 295 289 281 279 282
90 79 71 60 45 30 26 25 18 8 4 0 356 352 350 351 349 345 346 347 348 348 351 351 351 354 355 353 351 350 348 346 345 346 349 351 353 354 354 354 354 353 351 351 350 348 347 346 344 342 343 343 340 338 339 339 336 333 333 336 340 341 339 336 334 333 332 328 322 315 310 305 300 296 292 287 285 286 287 288 289 286 280 275 276
103 88 64 38 25 20 21 19 10 3 3 360 355 353 353 351 347 344 346 349 350 351 352 353 353 354 356 355 353 351 348 345 342 342 345 348 350 351 353 353 352 351 350 349 348 347 346 346 346 349 351 348 343 342 341 338 334 333 336 338 338 334 331 329 328 326 323 320 315 311 306 300 297 295 294 291 289 289 287 285 282 277 272 270 272
96 77 41 23 17 13 11 8 3 5 5 360 356 356 355 349 345 346 350 354 354 352 353 354 353 354 356 356 354 353 351 348 344 341 342 345 348 351 351 351 351 350 349 348 347 347 347 347 350 354 354 349 347 346 343 338 336 336 336 335 333 330 328 327 325 323 319 315 311 307 304 301 298 295 294 293 291 288 284 279 272 264 261 263 268
81 57 34 23 16 8 1 357 0 5 3 358 358 359 355 348 347 351 355 357 355 353 354 355 353 353 356 357 355 354 354 352 349 345 344 346 349 351 352 351 350 349 348 348 349 349 350 352 357 358 354 350 349 346 341 338 336 335 334 332 331 331 330 329 329 327 325 321 317 314 312 309 305 301 299 297 292 284 277 270 261 254 250 252 259
65 49 35 24 15 6 356 353 360 3 0 358 0 0 354 350 352 356 359 358 356 354 355 355 353 354 356 357 356 355 356 355 353 351 349 350 352 353 353 351 350 349 350 351 354 358 1 1 1 1 358 356 353 347 342 338 337 336 336 336 335 335 335 334 334 333 330 327 325 324 323 321 316 310 305 301 296 289 282 271 260 251 244 242 248
61 48 34 22 13 3 357 355 359 0 359 359 360 358 354 353 357 359 360 358 356 355 355 355 354 355 356 356 357 357 357 357 357 356 355 355 356 356 353 351 351 352 354 357 2 8 9 4 0 359 359 357 353 349 346 345 344 343 343 343 342 340 340 338 337 336 335 333 333 332 331 329 326 319 312 307 302 298 292 279 263 246 231 223 225
62 50 34 22 11 3 1 358 356 356 357 357 357 356 355 356 358 359 359 358 356 355 355 356 356 356 356 357 358 358 357 358 359 0 1 1 359 356 354 353 354 357 1 4 9 12 10 4 1 360 359 357 355 354 353 352 351 350 348 348 346 344 342 341 340 340 341 341 341 339 338 337 335 330 323 313 301 291 288 280 232 206 192 179 184
60 48 32 20 9 5 3 358 353 354 353 352 354 357 357 358 359 359 358 358 358 357 356 357 358 357 357 359 359 358 359 1 4 5 6 4 0 356 355 356 359 4 10 14 15 13 10 6 3 2 1 1 0 359 357 356 355 354 352 351 349 347 346 346 346 348 350 351 349 347 345 344 342 340 339 335 309 245 197 132 139 162 165 158 171
38 29 25 18 11 9 5 358 354 353 351 351 356 360 360 359 0 0 360 1 1 359 358 359 359 358 358 359 360 360 1 5 8 10 9 4 360 358 359 2 5 9 14 16 15 13 12 9 6 5 6 6 3 1 0 359 358 357 356 354 354 353 353 354 356 358 358 358 358 358 356 354 354 358 6 25 100 146 153 141 131 138 146 154 171
24 18 18 14 10 10 7 2 357 354 352 354 360 3 3 4 4 3 3 4 3 0 359 360 0 360 360 0 0 2 5 9 12 12 8 4 1 2 5 7 8 9 11 14 15 15 14 11 9 9 10 10 6 4 4 3 1 360 359 359 0 1 1 3 5 7 6 7 10 12 12 12 19 31 46 67 94 119 133 136 138 146 153 150 139
25 20 16 8 4 5 7 4 359 356 356 0 3 5 7 9 9 7 6 5 4 2 1 1 1 2 2 1 2 4 8 13 14 11 6 5 6 8 9 9 7 7 9 13 16 16 14 14 17 18 16 13 11 10 9 8 5 3 4 5 7 8 8 10 14 15 16 19 23 25 26 31 41 54 67 78 88 99 109 116 125 133 134 124 124
22 23 18 3 357 360 4 5 0 358 360 3 6 8 11 12 10 9 7 6 4 3 3 2 4 4 4 3 4 7 12 16 14 10 7 8 11 12 10 8 7 9 12 17 19 19 19 23 27 26 20 17 16 16 15 12 9 8 10 12 14 14 16 19 22 23 25 31 34 35 37 45 56 67 76 84 90 98 105 110 114 116 115 117 126